Weather History for Alexandria Esle, LA

Change the Weather History Date:

Monday, September 9, 2013

  Actual Average Record
Temperature  
Mean Temperature 81 °F -  
Max Temperature 96 °F 89 °F 96 °F (1989)
Min Temperature 66 °F 70 °F 52 °F (2011)
Cooling Degree Days 16    
Growing Degree Days 31 (Base 50)    
Moisture  
Dew Point 66 °F    
Average Humidity 79    
Maximum Humidity 94    
Minimum Humidity 36    
Precipitation  
Precipitation 0.00 in - - ()
Sea Level Pressure  
Sea Level Pressure 29.99 in    
Wind  
Wind Speed 1 mph (SE)    
Max Wind Speed 9 mph    
Max Gust Speed 16 mph    
Visibility 5 miles    
Events Fog    
Averages and records for this station are not official NWS values.
T = Trace of Precipitation, MM = Missing Value Source: NWS Daily Summary

Daily Weather History Graph

Daily Weather History Graph

Search for Another Location

Airport:

Trip Planner

Search our weather history database for the weather conditions in past years. The results will help you decide how hot, cold, wet, or windy it might be!

Date:

Astronomy

Sep. 09, 2013 Rise Set
Actual Time 6:49 AM CDT 7:22 PM CDT
Civil Twilight 6:25 AM CDT 7:46 PM CDT
Nautical Twilight 5:56 AM CDT 8:15 PM CDT
Astronomical Twilight 5:27 AM CDT 8:44 PM CDT
Moon 10:52 AM CDT (9/9) 9:59 PM CDT (9/9)
Length of Visible Light 13h 21m
Length of Day
12h 32m
Waxing Crescent, 19% of the Moon is Illuminated
Sep 9
Waxing Crescent
Sep 12
First Quarter
Sep 19
Full
Sep 26
Last Quarter
Oct 4
New

Hourly Weather History & Observations

Time (CDT) Temp. Heat Index Dew Point Humidity Pressure Visibility Wind Dir Wind Speed Gust Speed Precip Events Conditions
12:53 AM 70.0 °F - 66.9 °F 90% 29.96 in 7.0 mi Calm Calm - N/A   Clear
1:53 AM 70.0 °F - 66.9 °F 90% 29.96 in 3.0 mi Calm Calm - N/A   Clear
2:01 AM 69.8 °F - 66.2 °F 88% 29.97 in 2.5 mi Calm Calm - N/A   Clear
2:15 AM 68.0 °F - 66.2 °F 94% 29.96 in 1.0 mi Calm Calm - N/A   Clear
2:25 AM 69.8 °F - 66.2 °F 88% 29.97 in 3.0 mi Calm Calm - N/A   Clear
2:42 AM 69.8 °F - 66.2 °F 88% 29.97 in 2.0 mi Calm Calm - N/A   Clear
2:53 AM 69.1 °F - 66.0 °F 90% 29.96 in 4.0 mi Calm Calm - N/A   Clear
3:09 AM 68.0 °F - 66.2 °F 94% 29.96 in 0.8 mi Calm Calm - N/A   Clear
3:17 AM 68.0 °F - 66.2 °F 94% 29.96 in 0.5 mi Calm Calm - N/A Fog Fog
3:28 AM 68.0 °F - 66.2 °F 94% 29.96 in 0.5 mi Calm Calm - N/A Fog Fog
3:36 AM 68.0 °F - 66.2 °F 94% 29.97 in 0.5 mi Calm Calm - N/A Fog Fog
3:53 AM 68.0 °F - 66.0 °F 93% 29.97 in 1.2 mi Calm Calm - N/A   Partly Cloudy
3:56 AM 66.2 °F - 64.4 °F 94% 29.97 in 3.0 mi Calm Calm - N/A   Partly Cloudy
4:10 AM 66.2 °F - 64.4 °F 94% 29.97 in 1.8 mi Calm Calm - N/A   Clear
4:28 AM 66.2 °F - 64.4 °F 94% 29.98 in 0.8 mi Calm Calm - N/A   Mist
4:46 AM 66.2 °F - 64.4 °F 94% 29.98 in 1.0 mi Calm Calm - N/A   Mist
4:53 AM 66.9 °F - 64.9 °F 93% 29.98 in 1.0 mi Calm Calm - N/A   Mist
4:57 AM 66.2 °F - 64.4 °F 94% 29.98 in 2.0 mi Calm Calm - N/A   Partly Cloudy
5:04 AM 66.2 °F - 64.4 °F 94% 29.98 in 3.0 mi Calm Calm - N/A   Clear
5:53 AM 66.9 °F - 64.0 °F 90% 29.99 in 4.0 mi Calm Calm - N/A   Clear
6:05 AM 66.2 °F - 64.4 °F 94% 30.00 in 1.8 mi Calm Calm - N/A   Clear
6:17 AM 66.2 °F - 64.4 °F 94% 30.00 in 3.0 mi Calm Calm - N/A   Clear
6:53 AM 66.0 °F - 64.0 °F 93% 30.01 in 3.0 mi Calm Calm - N/A   Clear
7:53 AM 70.0 °F - 66.0 °F 87% 30.03 in 6.0 mi Calm Calm - N/A   Clear
8:53 AM 77.0 °F - 71.1 °F 82% 30.04 in 10.0 mi Calm Calm - N/A   Clear
9:53 AM 84.0 °F 89.0 °F 71.1 °F 65% 30.05 in 10.0 mi Calm Calm - N/A   Clear
10:53 AM 88.0 °F 93.8 °F 71.1 °F 57% 30.05 in 10.0 mi Calm Calm - N/A   Clear
11:53 AM 91.0 °F 95.6 °F 69.1 °F 48% 30.04 in 10.0 mi East 8.1 mph - N/A   Partly Cloudy
12:53 PM 93.0 °F 96.4 °F 66.9 °F 42% 30.03 in 10.0 mi SE 5.8 mph - N/A   Scattered Clouds
1:53 PM 93.9 °F 97.0 °F 66.0 °F 40% 30.01 in 10.0 mi Variable 6.9 mph 16.1 mph N/A   Partly Cloudy
2:53 PM 96.1 °F 98.8 °F 64.9 °F 36% 29.99 in 10.0 mi Variable 5.8 mph - N/A   Partly Cloudy
3:53 PM 95.0 °F 97.0 °F 64.0 °F 36% 29.98 in 10.0 mi South 9.2 mph - N/A   Clear
4:53 PM 95.0 °F 97.0 °F 64.0 °F 36% 29.97 in 10.0 mi SE 6.9 mph - N/A   Clear
5:53 PM 91.9 °F 93.3 °F 64.0 °F 39% 29.97 in 10.0 mi SSE 6.9 mph - N/A   Clear
6:53 PM 87.1 °F 92.0 °F 70.0 °F 57% 29.98 in 10.0 mi Calm Calm - N/A   Clear
7:53 PM 80.1 °F 82.9 °F 69.1 °F 69% 29.98 in 10.0 mi Calm Calm - N/A   Clear
8:53 PM 75.9 °F - 69.1 °F 79% 29.99 in 10.0 mi Calm Calm - N/A   Clear
9:53 PM 75.0 °F - 68.0 °F 79% 30.01 in 10.0 mi Calm Calm - N/A   Clear
10:53 PM 73.0 °F - 68.0 °F 84% 30.01 in 10.0 mi Calm Calm - N/A   Clear
11:53 PM 72.0 °F - 68.0 °F 87% 30.01 in 6.0 mi Calm Calm - N/A   Clear